Regional Weather Roundup
Issued by NWS

Home | Current Version | Previous Version | Graphics & Text | Print | Product List | Glossary On
Versions: 1 2 3 4 5 6 7 8 9 10 11 12 13 14 15 16 17 18 19 20 21 22 23 24 25 26 27 28 29 30 31 32 33 34 35 36 37 38 39 40 41 42 43 44 45 46 47 48 49 50
000
ASUS43 KLMK 241302
RWRKY
KENTUCKY REGIONAL WEATHER ROUNDUP
NATIONAL WEATHER SERVICE LOUISVILLE KY
800 AM EST MON NOV 24 2014

NOTE "FAIR" INDICATES FEW OR NO CLOUDS BELOW 12,000 FEET
WITH NO SIGNIFICANT WEATHER AND/OR OBSTRUCTIONS TO VISIBILITY.

KYZ001>023-026-027-061>063-070>075-241400-
WESTERN AND SOUTH CENTRAL KENTUCKY

CITY           SKY/WX    TMP DP  RH WIND       PRES   REMARKS
PADUCAH        CLOUDY    47  38  71 W20G30    29.59R
HENDERSON      CLOUDY    48  41  76 W23G35    29.47R
OWENSBORO      RAIN      52  50  93 W23G35    29.45R FOG
HOPKINSVILLE   CLOUDY    56  48  75 SW32G43   29.54R HAZE
BOWLING GREEN  MOCLDY    62  48  60 SW22G35   29.49R
GLASGOW        NOT AVBL
$$

KYZ024-025-028>034-038-045-046-053-241400-
NORTH CENTRAL KENTUCKY

CITY           SKY/WX    TMP DP  RH WIND       PRES   REMARKS
LOUISVILLE/SDF MOCLDY    63  50  62 SW36G46   29.34R
LOUISVILLE/LOU CLOUDY    63  50  62 S20G38    29.35R
FORT KNOX      MOCLDY    60  50  70 S26G39    29.37R
$$

KYZ035>037-039>044-047>052-055>060-089>105-241400-
NORTHEAST KENTUCKY

CITY           SKY/WX    TMP DP  RH WIND       PRES   REMARKS
LEXINGTON      MOCLDY    60  51  72 S26G38    29.42S
COVINGTON      MOCLDY    61  50  67 S26G38    29.31R
FRANKFORT      MOCLDY    61  50  67 SW25G35   29.38R
$$

KYZ054-064>069-076>088-106>120-241400-
SOUTHEAST KENTUCKY

CITY           SKY/WX    TMP DP  RH WIND       PRES   REMARKS
JACKSON        CLEAR     60  48  64 VRB7G20   29.52R
LONDON         PTCLDY    65  46  50 SW20G31   29.54R
SOMERSET       NOT AVBL
MIDDLESBORO    MOCLDY    60  53  75 S15G24    29.62R
MONTICELLO     PTSUNNY   63  51  64 SW22G31   29.57R
$$




USA.gov is the U.S. government's official web portal to all federal, state and local government web resources and services.